Renton, WA
on Wednesday, December 5, 2012

Wednesday
Previous Day Next Day
Daily Summary
 ActualAverage (KSEA)Record (KSEA)
Temperature
Mean Temperature °F 41°F  
Max Temperature 50°F 47°F 55°F (1954)
Min Temperature 44°F 36°F 23°F (1956)
Degree Days
Heating Degree Days 18 24  
Month to date heating degree days 116  
Since 1 July heating degree days 1299  
Cooling Degree Days 0 0  
Month to date cooling degree days 0  
Year to date cooling degree days 189  
Moisture
Dew Point 38°F   
Average Humidity 71    
Maximum Humidity 82    
Minimum Humidity 59    
Precipitation
Precipitation 0.03 in 0.19 in 1.67 in (1970)
Month to date precipitation 0.98  
Year to date precipitation 33.12  
Snow
Snow 0.00 in in 2.60 in (1956)
Month to date snowfall  
Since 1 July snowfall  
Snow Depth in   
Wind
Wind Speed 8 mph   
Max Wind Speed 12 mph   
Max Gust Speed 20 mph   
Visibility 10 miles   
Events Rain   

Key: T is trace of precipitation, MM is missing value
Source: NWS Daily Summary
Time(PST)TemperatureDew PointHumidity Pressure Visibility Wind DirectionWind SpeedGust SpeedPrecipitationEvents Conditions
12:53 AM 48.0°F 39.0°F 71% 29.90 in 10.0 miles South 11.5 mph 19.6 mph 0.00 in   Scattered Clouds
1:53 AM 46.9°F 37.9°F 71% 29.96 in 10.0 miles South 10.4 mph - N/A   Scattered Clouds
2:53 AM 46.9°F 37.0°F 68% 30.00 in 10.0 miles South 10.4 mph - 0.00 in   Scattered Clouds
3:53 AM 46.0°F 36.0°F 68% 30.05 in 10.0 miles SSE 5.8 mph - N/A   Mostly Cloudy
4:53 AM 45.0°F 37.0°F 74% 30.06 in 10.0 miles SSE 10.4 mph - 0.00 in   Mostly Cloudy
6:53 AM 44.1°F 37.0°F 76% 30.12 in 10.0 miles SE 9.2 mph - N/A   Clear
7:53 AM 44.1°F 36.0°F 73% 30.14 in 10.0 miles SE 9.2 mph 17.3 mph N/A   Mostly Cloudy
8:03 AM 44.6°F 35.6°F 71% 30.13 in 10.0 miles SSE 8.1 mph - N/A   Scattered Clouds
8:53 AM 45.0°F 36.0°F 71% 30.17 in 10.0 miles SSE 6.9 mph - N/A   Clear
9:53 AM 46.9°F 37.0°F 68% 30.19 in 10.0 miles SSE 9.2 mph - N/A   Scattered Clouds
10:53 AM 48.9°F 37.9°F 66% 30.21 in 10.0 miles SSE 8.1 mph - N/A   Partly Cloudy
11:53 AM 50.0°F 37.9°F 63% 30.20 in 10.0 miles South 8.1 mph - N/A   Partly Cloudy
12:53 PM 50.0°F 36.0°F 59% 30.20 in 10.0 miles South 8.1 mph - N/A   Clear
1:53 PM 50.0°F 37.0°F 61% 30.19 in 10.0 miles SSE 9.2 mph - N/A   Clear
2:53 PM 50.0°F 36.0°F 59% 30.19 in 10.0 miles SSE 6.9 mph - N/A   Scattered Clouds
3:53 PM 48.2°F 37.4°F 66% 30.19 in 10.0 miles SSE 6.9 mph - N/A Rain Light Rain
4:53 PM 46.0°F 39.0°F 76% 30.22 in 10.0 miles South 4.6 mph - 0.03 in Rain Light Rain
5:53 PM 45.0°F 39.9°F 82% 30.22 in 10.0 miles ESE 4.6 mph - 0.00 in   Overcast
6:53 PM 45.0°F 39.0°F 80% 30.22 in 10.0 miles ESE 3.5 mph - N/A   Overcast
7:53 PM 46.0°F 39.0°F 76% 30.22 in 10.0 miles Calm Calm - 0.00 in   Overcast
8:53 PM 45.0°F 39.0°F 80% 30.22 in 10.0 miles Calm Calm - N/A   Overcast
9:53 PM 45.0°F 37.9°F 76% 30.21 in 10.0 miles ESE 3.5 mph - N/A   Overcast
10:53 PM 45.0°F 39.0°F 80% 30.20 in 10.0 miles Calm Calm - N/A   Mostly Cloudy
11:53 PM 45.0°F 39.0°F 80% 30.21 in 10.0 miles Calm Calm - 0.00 in   Overcast
Moon Phase
Dec. 05 Dec. 06 Dec. 13 Dec. 20 Dec. 28
Sunrise:07:41 AM (PST) Moon Rise:11:35 PM (PST)12/5
Sunset:04:18 PM (PST) Moon Set:11:47 AM (PST)12/5

Copyright © 2014 The Weather Underground, Inc.